Wind_Speed
22 22 22 22 22 22 22 22 21 21 21 22 23 23 22 21 21 20 18 17 15 15 16 17 17 16 15 15 17 18 18 19 17 21 27 25 18 16 16 13 15 22 22 19 19 17 18 20 20 18 17 21 22 20 20 18 16 12 4 3 4 3 4 4 3 5 8 5 4 9 13 9 7 16 22 15 13 25 24 17 20 14 19 31 31 38 41 40
23 23 23 23 23 23 23 23 23 22 22 22 23 23 23 22 21 20 19 17 15 14 14 15 16 16 15 14 16 17 19 19 20 26 24 16 15 14 17 19 18 23 25 24 23 20 20 23 23 23 21 19 19 19 17 15 16 11 3 3 5 5 5 5 5 6 9 10 11 14 18 14 11 20 22 13 14 23 17 15 21 21 24 29 36 41 38 41
24 24 24 24 24 24 24 24 23 23 23 23 24 24 23 23 21 20 20 18 16 15 14 14 15 15 15 14 15 17 17 18 23 25 13 8 15 15 15 21 23 24 25 24 24 21 19 22 24 25 22 17 17 18 14 13 15 13 7 3 7 9 6 7 8 6 7 17 17 15 20 17 15 22 20 13 18 19 14 17 22 25 31 36 40 41 41 42
24 24 24 24 24 24 24 24 24 24 24 24 24 24 24 24 22 20 19 18 17 15 14 13 13 14 14 14 14 14 14 16 17 12 2 3 12 18 18 22 27 27 24 21 23 23 17 19 24 24 19 13 17 17 13 15 12 10 10 6 9 8 6 12 10 6 6 16 17 14 20 18 19 22 17 15 15 11 15 25 30 33 39 42 42 43 44 43
24 25 24 24 25 25 25 24 24 24 24 24 24 24 25 24 23 21 19 18 17 16 14 13 12 12 13 14 13 11 8 8 4 4 3 1 7 19 22 21 26 27 25 21 23 25 19 19 23 22 16 10 12 12 14 21 15 7 11 14 16 8 4 12 11 8 5 11 13 11 12 15 20 19 18 18 11 10 22 31 36 41 45 46 46 45 43 43
25 25 24 25 25 25 25 25 24 24 24 24 24 24 24 24 23 22 19 17 16 16 13 12 11 11 11 11 12 10 5 4 4 6 3 1 5 19 26 23 24 24 23 22 23 28 24 22 23 20 15 9 10 11 13 22 18 8 9 16 22 17 9 11 11 9 7 8 10 11 9 13 15 12 18 21 11 18 31 35 38 44 47 47 47 46 44 44
25 25 25 25 24 25 25 25 25 24 24 24 24 23 23 23 22 22 20 18 16 15 13 11 10 10 10 10 11 8 11 14 8 7 4 5 6 15 28 28 26 25 24 24 25 30 30 26 24 21 14 7 11 14 15 18 19 12 9 13 18 21 18 14 12 11 11 9 9 12 12 12 11 7 13 17 15 24 32 36 40 43 44 44 45 45 44 45
26 25 25 25 25 25 25 25 25 24 25 24 24 22 22 22 21 21 20 19 17 15 14 11 9 9 8 8 7 7 15 14 5 9 9 7 9 8 24 30 29 29 28 27 28 32 34 28 25 22 12 9 12 12 16 14 13 13 13 15 15 19 23 19 15 15 16 13 12 10 9 11 15 7 6 11 21 30 34 38 40 42 43 42 43 44 43 44
26 27 26 26 25 25 25 25 24 25 25 24 23 22 22 21 21 21 20 20 18 15 14 12 10 8 8 7 4 6 12 5 3 11 13 8 6 5 18 27 28 29 30 30 30 31 33 29 29 25 11 13 15 12 16 11 8 13 17 18 14 15 21 21 18 19 18 15 14 8 6 12 17 9 3 10 28 35 36 39 40 44 43 41 41 41 44 44
27 27 27 27 27 27 26 25 25 25 24 24 23 23 22 21 20 21 21 20 18 16 14 12 10 8 7 6 6 3 5 4 6 13 16 10 7 7 14 22 25 28 29 31 31 32 35 30 30 28 15 13 15 14 15 12 12 17 18 19 19 17 19 21 21 21 18 14 13 9 6 10 13 9 3 12 33 39 38 39 41 44 42 43 40 38 43 43
28 28 28 29 28 28 28 27 26 25 24 24 24 23 21 20 20 21 21 19 17 17 14 13 11 9 9 8 12 8 7 4 4 9 13 10 10 10 13 19 23 25 27 31 32 33 35 32 29 24 14 12 14 13 16 21 20 20 17 15 18 18 17 19 18 19 15 10 15 12 5 5 6 4 7 21 37 40 40 39 40 41 40 43 40 37 41 42
29 29 29 29 29 29 29 28 27 25 25 24 23 21 18 18 18 21 21 19 18 17 16 16 12 11 9 12 19 9 3 7 4 2 6 9 11 12 12 16 21 24 26 29 31 32 33 32 28 22 13 10 9 7 12 23 23 21 17 10 12 12 12 15 15 17 13 7 18 16 5 3 3 5 18 33 38 39 41 38 38 39 38 42 40 36 40 41
30 30 29 29 29 29 29 28 27 26 24 24 22 19 17 17 19 23 23 20 18 16 17 17 14 14 9 15 23 14 6 12 14 12 10 14 15 16 15 15 17 21 24 26 27 28 31 32 27 25 21 11 6 8 11 16 17 16 13 7 9 8 7 15 17 18 13 9 24 19 1 5 6 11 28 36 38 37 36 36 37 38 37 40 39 36 38 40
31 31 30 29 30 29 29 28 27 25 24 24 21 18 17 18 22 24 20 15 15 15 16 15 13 12 11 18 24 18 15 18 18 16 16 19 19 19 19 18 16 17 20 24 25 25 28 31 27 23 24 19 13 14 12 11 9 6 6 5 6 5 5 13 17 15 11 13 29 19 3 6 5 14 31 35 39 38 33 35 36 37 37 38 39 37 37 39
32 32 31 30 30 29 28 27 26 23 23 21 20 20 18 20 23 20 13 13 17 19 18 13 11 9 11 21 24 14 12 15 18 19 21 21 20 20 22 22 20 17 16 19 24 25 26 29 25 18 19 21 18 14 8 6 5 2 4 5 4 5 4 9 15 16 12 13 28 17 3 6 6 14 33 36 39 39 34 35 36 37 38 38 38 38 38 38
33 33 32 30 30 29 28 27 24 22 22 19 20 21 18 21 23 13 8 13 21 26 19 9 7 6 7 14 14 8 8 10 11 15 24 25 22 21 22 21 20 19 15 14 19 25 27 24 21 20 18 15 11 7 4 5 5 2 4 4 4 5 4 6 11 17 17 11 18 16 4 6 8 16 35 38 38 38 33 34 36 37 39 39 39 40 39 37
34 34 33 31 29 29 28 27 23 21 20 19 21 22 20 23 20 7 6 13 25 30 17 6 4 7 11 11 9 7 5 4 5 5 18 25 26 23 21 23 22 20 18 15 16 23 26 21 15 15 15 10 5 5 5 6 7 4 3 3 5 5 4 4 7 14 17 11 12 16 9 5 8 18 33 38 38 35 31 32 35 36 38 39 39 40 40 38
35 35 34 32 30 29 28 27 23 19 19 19 21 23 21 25 20 3 4 18 29 27 11 6 2 4 10 11 11 10 5 4 6 7 10 19 27 25 21 26 24 22 21 16 16 22 22 17 11 7 7 8 7 7 8 8 6 4 4 3 5 5 5 5 6 9 14 14 12 14 13 9 12 18 28 36 38 33 30 33 35 36 37 38 39 40 41 40
35 35 34 33 31 30 28 27 22 17 19 18 21 23 23 30 22 2 6 24 27 16 6 8 8 5 11 16 19 15 13 14 14 11 10 13 24 28 23 25 27 26 20 11 13 20 16 9 8 7 8 10 10 10 9 5 4 6 5 5 5 6 5 7 8 7 10 13 11 13 14 11 15 19 23 31 37 33 31 33 33 34 36 37 39 41 42 41
35 35 34 33 30 29 28 26 21 17 18 19 23 25 26 33 20 2 18 33 29 22 22 26 23 23 28 33 33 24 22 23 18 15 13 13 21 27 24 24 25 23 16 8 10 17 15 6 7 12 11 12 12 11 8 5 6 7 5 6 7 7 7 8 11 9 8 9 10 14 13 11 17 20 21 28 33 28 28 30 31 34 35 37 39 41 43 44
36 34 34 33 30 28 26 25 21 16 17 18 23 25 24 27 16 12 30 36 39 33 29 36 34 35 37 38 37 27 23 21 18 18 15 15 20 22 22 21 16 12 13 11 9 12 12 7 13 16 10 9 10 10 8 6 9 9 6 7 7 7 8 11 12 9 9 8 9 14 11 11 17 18 20 26 25 22 26 29 31 36 37 38 41 42 44 45
36 34 34 33 30 28 25 24 20 16 15 14 19 23 21 24 18 20 26 24 39 40 26 29 29 34 38 38 38 29 20 18 20 22 18 14 19 19 18 17 11 7 11 12 8 7 9 12 18 14 8 7 8 10 11 10 10 9 7 6 6 6 7 10 13 9 8 8 8 13 12 10 16 19 21 24 23 25 34 37 37 40 38 37 41 43 43 42
36 35 34 33 32 29 26 22 17 15 14 12 19 23 22 27 22 24 24 14 28 37 24 16 14 22 28 28 28 23 19 16 18 24 22 15 19 24 19 12 10 9 10 12 11 9 9 14 15 11 9 10 9 11 14 12 10 8 7 6 7 8 6 8 10 7 6 7 8 13 12 8 13 16 18 27 30 31 38 42 40 43 43 42 45 46 44 43
35 35 33 33 32 31 27 19 14 17 15 13 18 21 23 27 22 26 26 9 13 22 16 10 7 10 12 12 12 12 17 19 19 24 25 17 17 24 19 12 12 9 10 15 16 14 10 7 11 13 12 13 12 11 12 11 9 10 11 9 8 11 12 11 9 5 4 6 7 12 9 4 10 13 13 21 27 27 33 36 33 39 45 45 46 46 47 48
34 33 33 33 31 31 26 16 16 21 18 16 19 21 24 24 21 27 22 6 6 10 6 8 9 12 12 17 18 8 15 18 24 27 25 19 16 18 15 14 13 9 11 16 15 14 13 8 15 17 15 14 14 12 12 11 8 10 14 15 14 14 15 13 9 5 4 6 5 11 8 3 10 17 14 15 17 18 23 26 27 34 39 40 41 44 47 50
34 31 32 31 29 28 23 17 20 23 20 21 23 24 24 20 20 25 14 1 4 6 4 8 7 13 18 25 28 11 7 12 23 30 29 24 19 15 12 11 10 10 11 11 9 9 10 10 12 14 16 17 15 12 14 13 8 8 13 17 17 15 16 14 8 4 3 5 5 10 11 5 7 15 17 17 18 18 19 20 25 33 35 37 40 44 46 47
33 29 29 28 25 24 22 20 21 24 22 23 26 26 23 20 21 19 6 2 4 6 6 9 7 12 24 36 30 4 4 9 13 25 33 32 24 18 13 9 8 9 9 7 7 7 10 14 12 13 16 15 14 12 14 16 11 8 10 14 16 15 17 16 8 5 5 4 5 5 7 5 6 12 18 21 20 19 19 19 21 28 34 37 40 43 46 48
32 27 26 26 21 18 20 21 22 25 24 24 27 26 23 23 19 9 2 1 5 6 5 8 11 16 32 45 28 3 9 16 6 13 29 34 29 18 12 11 10 8 9 10 9 7 11 15 15 14 14 11 13 14 13 16 13 7 8 11 14 15 17 15 8 5 5 4 6 5 4 3 4 7 14 20 20 17 19 21 20 24 32 37 39 42 46 49
32 26 24 24 17 13 16 19 23 27 25 25 26 26 26 23 12 3 3 0 4 8 8 12 17 21 34 41 25 11 16 17 11 14 20 30 31 20 11 11 11 9 11 14 10 5 8 14 17 14 12 10 12 13 12 14 12 8 8 9 11 14 16 13 7 6 6 5 7 7 4 4 5 4 8 14 17 17 18 20 20 24 32 38 40 43 45 48
33 24 22 21 14 12 14 16 23 27 25 23 23 27 27 15 3 3 2 1 3 8 11 12 15 21 28 24 18 21 18 12 17 27 18 19 27 24 17 15 13 8 9 13 13 9 7 13 19 15 13 10 9 12 13 14 12 9 9 9 8 9 11 10 5 5 6 6 9 9 8 6 6 4 6 12 16 20 18 16 17 21 30 38 42 44 46 47
33 23 18 16 12 12 14 16 23 27 22 20 25 30 23 7 3 3 1 3 4 7 10 10 13 19 21 15 12 18 17 11 17 24 17 10 13 16 12 11 11 7 6 7 10 11 11 11 11 13 19 16 8 10 14 15 14 9 8 9 7 4 5 6 4 4 6 6 7 9 10 8 6 5 5 10 16 23 21 18 18 19 25 36 42 44 47 49
33 23 13 11 11 11 13 15 21 26 22 21 29 28 13 4 3 1 2 7 5 5 8 10 13 15 16 13 9 12 13 10 14 15 11 10 5 9 9 7 6 7 8 6 4 7 12 13 8 9 20 21 12 8 9 12 14 10 6 7 6 4 3 5 5 4 5 6 7 8 9 7 7 6 7 9 13 18 19 21 25 24 28 37 42 44 45 47
33 21 10 9 9 9 11 13 18 25 23 24 28 20 5 4 2 1 4 5 3 6 8 10 14 13 13 11 8 10 10 7 13 15 10 12 9 4 10 10 7 7 8 6 4 4 7 11 13 12 13 18 16 9 7 9 10 11 9 7 7 6 5 6 5 3 4 6 8 7 8 6 5 6 9 10 11 14 17 23 34 38 39 41 44 45 44 44
33 18 8 7 6 7 10 12 18 23 21 23 21 11 5 2 2 4 4 2 3 8 9 10 14 12 9 8 7 11 7 4 14 16 11 12 11 6 5 9 9 7 5 4 5 6 7 7 12 14 7 10 16 12 8 8 9 11 10 8 7 6 6 6 4 4 5 4 6 5 5 6 5 5 9 11 11 15 19 24 35 44 47 45 44 44 44 44
31 13 5 6 4 6 10 13 20 20 16 18 13 4 3 0 1 3 3 2 4 7 10 11 11 8 7 7 7 11 8 6 14 14 10 11 8 7 8 6 4 4 3 3 3 4 9 8 6 11 9 8 14 13 11 10 8 10 9 7 9 7 5 3 3 5 4 2 4 5 4 5 5 5 6 7 8 11 18 22 27 35 41 40 38 40 43 45
30 12 5 6 3 7 14 16 19 18 15 12 6 1 0 2 1 2 2 4 4 6 9 9 6 5 6 7 7 12 11 8 11 10 8 10 8 7 9 8 11 13 8 2 4 2 6 8 4 8 13 13 14 12 13 12 7 6 9 9 8 6 6 3 4 1 4 4 4 4 4 3 2 5 6 6 7 6 11 14 18 28 37 35 34 39 43 43
34 18 10 12 9 13 21 19 16 18 14 6 3 2 2 2 0 1 3 6 5 5 6 5 4 4 6 7 7 13 13 8 9 9 7 8 6 9 10 9 14 16 15 9 4 2 4 6 6 9 14 17 19 15 13 14 9 6 9 9 6 4 4 4 2 2 3 5 4 4 6 4 2 5 6 7 9 8 9 10 12 24 32 32 33 40 44 45
36 19 10 15 18 20 20 15 12 14 9 3 0 5 2 2 2 3 5 8 6 3 3 3 3 3 6 7 7 11 12 8 8 8 6 6 4 10 11 8 11 17 22 18 5 2 6 5 6 10 13 14 18 15 10 13 15 10 8 9 8 5 7 6 4 4 4 4 3 3 6 5 4 5 4 8 12 11 10 9 10 18 25 29 34 40 45 46
35 19 7 17 26 20 15 15 15 11 4 1 2 4 2 2 3 8 8 7 5 3 2 3 3 3 4 7 7 9 10 8 9 7 5 5 5 8 12 9 11 19 25 20 8 5 6 3 4 8 9 8 10 10 8 12 15 10 7 9 8 6 6 6 3 4 4 4 3 3 4 5 5 6 8 13 15 13 12 10 9 15 24 31 37 40 44 45
33 18 9 23 28 19 17 17 13 6 1 2 3 2 3 1 5 10 9 9 5 3 3 4 5 4 3 7 8 7 7 7 8 7 5 6 8 6 11 13 14 20 23 16 7 8 6 2 3 7 6 5 6 9 12 13 11 9 8 8 9 4 4 5 2 3 5 3 4 4 4 6 6 8 14 17 16 14 15 14 10 14 27 38 42 43 44 45
28 12 10 27 31 26 22 15 9 5 1 1 1 2 5 4 5 7 9 14 8 4 6 5 4 5 4 6 7 7 7 5 6 6 5 6 7 4 10 19 17 17 18 11 7 8 6 3 4 6 6 5 7 8 14 16 11 9 7 7 10 6 5 6 5 3 4 4 4 5 4 7 7 8 12 16 15 15 16 15 10 15 29 39 44 48 47 45
21 8 12 29 32 26 18 7 8 9 2 4 7 6 8 8 7 6 10 14 9 5 6 5 4 5 4 4 6 7 6 4 4 3 4 7 7 6 14 24 22 17 15 9 7 10 7 3 4 7 5 9 14 11 10 15 13 10 7 6 8 7 7 8 7 6 6 4 4 4 3 6 7 7 10 14 15 16 19 18 11 17 33 41 44 47 47 47
17 14 20 30 28 21 14 4 6 7 3 10 13 11 11 9 8 9 10 11 7 3 4 3 3 4 3 4 6 7 7 4 1 2 6 7 8 10 17 23 22 17 12 6 6 10 9 3 2 6 7 9 13 12 9 10 13 11 8 6 8 9 9 8 6 6 6 6 5 2 3 7 7 5 7 12 16 17 19 21 16 19 32 41 43 44 44 46
18 18 21 29 24 21 15 4 4 5 5 11 12 11 12 10 9 11 9 9 7 3 1 1 2 3 3 4 5 7 7 2 2 3 5 5 7 11 15 19 20 14 8 6 7 8 7 3 3 6 5 5 7 6 7 7 9 9 8 9 11 13 11 6 5 5 5 7 7 4 4 7 7 5 5 7 13 13 13 18 21 24 30 37 39 41 44 46
15 9 15 27 23 19 13 7 5 4 6 9 10 9 11 9 11 14 11 9 9 8 4 2 4 5 5 4 6 8 6 2 3 3 4 5 7 9 13 18 20 15 12 13 12 8 5 3 3 3 3 4 4 4 3 3 4 6 11 15 14 14 13 7 5 5 5 7 7 6 6 9 8 8 9 4 10 11 10 14 20 26 34 38 37 39 45 47
10 3 8 22 20 15 14 13 10 6 5 6 7 7 9 8 9 15 12 7 12 15 8 3 6 7 5 4 5 8 7 2 1 3 4 6 5 5 13 20 19 17 14 12 13 8 3 4 5 7 8 7 7 9 9 7 8 8 12 18 16 13 13 9 5 5 6 6 6 7 9 10 9 8 9 4 6 9 10 11 13 20 31 39 40 42 44 46
6 3 4 10 11 11 14 15 13 9 6 7 4 4 8 7 5 9 9 7 13 15 7 1 5 5 3 5 5 5 8 8 5 5 5 6 6 7 14 17 15 14 12 12 13 7 2 4 7 9 11 13 15 18 18 12 11 14 13 17 18 14 13 11 7 7 7 7 5 8 11 11 8 8 8 5 5 7 8 8 10 19 32 38 41 44 44 44
3 4 5 5 4 5 8 11 15 12 10 10 4 3 7 6 5 7 6 8 14 12 5 1 3 4 4 6 5 4 7 7 4 5 4 4 6 8 10 10 9 10 15 12 10 6 1 5 7 9 16 20 20 20 18 14 12 13 13 18 20 16 16 13 8 9 9 8 8 9 12 12 8 8 10 7 5 5 7 11 13 21 32 37 40 43 43 44
4 4 5 4 3 4 8 13 17 13 9 9 5 3 6 8 9 8 6 7 9 8 7 4 4 6 7 7 5 3 4 5 5 6 4 3 6 6 6 6 5 10 14 10 8 6 2 5 7 12 18 20 18 15 12 11 8 8 9 18 21 16 17 15 9 9 9 8 9 9 11 12 8 7 7 4 3 2 6 12 15 20 29 34 38 41 42 44
6 5 7 6 4 7 10 11 11 8 6 7 4 2 6 8 9 10 8 7 7 6 7 7 7 7 6 7 6 4 3 5 7 8 6 5 4 2 1 2 5 10 12 8 7 6 2 5 9 12 12 12 12 11 11 11 9 7 6 11 21 20 17 14 10 8 6 7 7 7 8 8 6 2 2 5 8 9 8 9 12 18 28 33 36 39 40 42
9 11 12 9 4 5 7 6 6 5 4 4 3 3 5 4 6 10 9 8 9 8 7 7 9 8 4 5 7 5 4 8 10 13 14 13 8 3 4 2 6 9 9 7 7 6 3 5 8 8 7 7 9 13 16 16 10 3 8 3 12 17 14 11 10 7 3 5 5 6 5 5 5 3 7 8 10 12 8 8 11 14 22 28 32 35 38 41
12 13 12 8 3 2 3 4 5 4 3 4 6 6 4 2 6 9 7 5 8 12 12 10 8 7 3 5 7 7 10 14 17 20 22 21 16 10 10 10 10 9 6 6 7 6 4 4 5 6 5 7 10 15 14 11 6 5 8 11 6 5 6 5 5 4 5 1 3 4 5 7 6 7 11 9 10 11 8 8 13 18 21 23 28 32 36 40
Wind_Direction
5 3 1 359 357 355 354 353 352 350 347 344 343 343 343 343 343 340 336 332 327 323 323 318 309 302 297 293 287 284 282 279 277 267 260 259 253 238 227 213 191 191 194 186 181 181 182 187 190 183 178 187 199 208 209 218 213 194 177 224 232 240 225 202 204 143 137 162 208 199 187 181 172 185 189 197 190 159 154 159 155 155 149 151 152 154 156 155
3 2 360 358 356 354 353 352 351 350 346 344 342 341 341 341 341 339 336 333 327 322 322 319 312 304 299 295 289 285 284 287 283 271 265 270 264 236 218 209 189 187 195 193 190 188 184 186 184 176 180 191 203 210 213 219 211 198 173 211 225 229 211 207 209 146 139 165 184 196 190 193 194 188 193 196 174 159 149 145 142 133 136 146 150 152 155 157
2 1 358 357 355 353 353 351 351 349 347 345 342 341 339 339 339 337 335 332 327 321 319 319 314 304 299 295 289 286 289 296 291 280 278 264 241 217 201 202 192 188 196 202 199 193 189 186 180 177 186 201 209 212 218 220 214 206 200 222 238 230 234 246 222 178 154 160 170 192 191 202 207 198 203 186 162 161 153 147 143 137 140 147 152 155 157 159
2 0 358 356 354 352 352 351 351 348 347 345 343 342 338 337 336 335 333 331 327 321 319 319 314 306 299 295 289 288 298 307 295 280 281 232 223 202 194 195 193 191 192 200 204 198 191 186 180 180 189 210 220 220 224 221 212 197 199 223 239 227 234 251 227 185 155 148 159 174 183 202 204 204 209 175 162 165 161 158 154 148 148 151 156 159 161 162
2 359 357 355 353 352 352 351 350 348 347 344 343 341 338 337 334 333 331 328 325 319 318 316 314 307 296 293 289 286 304 324 286 179 113 355 209 193 189 187 188 190 188 189 197 195 189 186 182 184 195 215 222 225 230 222 216 209 216 225 236 230 214 251 233 190 171 139 148 158 177 189 185 206 207 177 175 172 168 165 159 155 154 157 159 161 164 165
1 359 357 355 353 352 351 352 351 349 347 345 343 340 338 335 332 332 329 327 322 316 316 313 314 306 296 290 285 280 255 267 215 162 125 112 185 185 182 181 177 178 184 184 189 190 186 187 185 189 201 215 216 221 232 222 217 234 239 229 235 232 225 251 231 201 192 152 154 154 154 163 168 213 197 179 180 167 167 166 161 160 160 160 161 163 165 168
1 359 358 356 354 352 352 352 350 348 347 345 343 338 336 333 331 330 326 326 319 313 312 308 310 302 296 284 277 274 242 257 252 194 171 121 139 180 184 185 183 181 185 188 187 184 187 191 191 195 197 211 219 224 235 229 224 233 249 241 237 229 230 235 213 205 199 186 193 162 142 159 179 218 190 178 168 161 164 164 163 161 160 160 162 165 166 170
2 360 358 357 355 353 353 352 350 348 346 344 342 338 334 331 328 327 324 322 317 312 308 302 307 293 291 282 271 274 255 269 285 195 192 131 109 165 187 189 193 195 193 194 190 183 188 195 197 197 195 214 216 221 229 232 233 233 240 244 241 229 225 217 201 209 206 205 221 186 136 176 193 195 194 174 157 157 160 160 161 158 159 161 163 166 168 170
2 0 359 358 356 355 353 353 351 347 346 344 342 338 334 331 328 326 321 321 319 312 305 299 299 282 279 270 237 276 265 282 73 188 187 160 128 150 186 185 188 194 194 194 193 187 188 196 202 199 200 217 217 227 227 226 234 230 235 241 243 230 218 203 199 213 211 208 212 183 129 185 191 177 211 174 156 156 158 157 159 159 162 164 164 169 171 172
3 2 0 359 357 356 354 354 351 348 348 345 342 338 335 333 330 325 323 328 324 314 308 297 293 277 269 241 177 239 256 89 89 183 183 187 184 166 184 186 184 187 190 192 192 191 191 196 200 201 214 226 222 229 224 223 234 235 240 244 244 234 217 201 204 213 206 205 201 169 145 181 175 164 217 176 158 155 155 156 160 161 165 168 167 170 173 174
3 3 1 359 357 356 355 354 352 350 349 347 343 339 337 336 333 329 330 334 325 318 313 300 293 272 257 217 194 227 237 156 100 172 187 208 198 182 189 194 194 190 188 190 193 195 194 196 197 200 220 232 228 236 235 234 239 246 249 254 250 236 219 204 207 209 196 203 193 161 120 144 142 185 181 159 156 155 155 156 161 164 167 171 171 171 174 176
1 2 1 358 356 356 355 354 352 350 351 350 346 343 343 343 339 335 334 330 321 318 312 304 295 269 257 226 223 232 188 190 212 232 213 216 211 207 203 202 207 205 197 192 194 197 196 196 197 203 216 222 226 242 246 239 239 248 249 261 264 246 221 206 205 201 192 198 181 155 87 143 176 203 162 155 158 157 156 158 163 166 169 172 175 173 173 176
358 360 1 357 356 356 355 354 352 351 352 352 352 351 350 350 345 337 331 323 317 318 312 306 291 271 253 235 244 259 271 250 263 270 223 202 211 215 215 212 215 217 213 209 202 199 198 196 200 214 226 237 242 230 251 254 246 245 241 248 258 260 232 202 198 195 193 176 167 161 133 211 210 176 160 158 159 156 157 161 164 168 171 175 178 177 175 177
357 358 359 357 357 356 355 354 353 352 353 353 356 355 350 349 344 339 337 339 344 341 326 313 294 276 243 246 266 278 276 268 262 244 205 200 207 206 210 213 215 217 219 222 215 205 200 200 207 224 238 250 261 255 266 274 263 250 240 244 227 245 245 201 193 186 189 168 160 166 231 207 215 166 160 161 160 159 161 164 167 169 173 176 180 182 180 181
357 356 358 358 355 355 355 354 353 352 354 354 352 350 348 346 343 344 355 11 10 356 339 320 296 284 260 268 282 280 254 249 241 216 193 199 208 205 206 207 210 211 213 221 217 211 205 206 214 228 244 251 257 263 275 277 270 252 235 259 218 220 246 206 195 182 186 171 162 171 212 185 222 171 163 167 165 164 164 166 170 172 174 177 181 184 185 186
357 354 356 358 354 355 355 355 355 350 353 356 348 346 346 346 348 346 350 0 356 347 337 320 299 293 278 286 291 264 229 240 247 208 189 196 204 204 203 204 208 204 207 216 210 211 210 210 220 230 241 250 247 238 254 274 270 235 204 243 246 225 237 209 201 194 191 177 171 187 197 164 208 179 168 171 170 167 166 169 173 173 175 178 181 184 187 188
356 354 354 356 354 355 355 355 357 348 350 355 346 345 345 349 354 335 329 348 338 335 325 281 307 301 266 271 282 266 243 248 303 242 199 201 201 200 202 205 204 198 206 213 206 210 212 213 221 229 234 238 226 192 213 242 241 245 196 226 253 230 227 205 204 204 194 185 185 197 209 172 169 173 171 174 175 170 168 171 174 176 177 179 181 184 187 189
355 352 352 354 354 354 355 355 357 349 347 353 348 346 349 356 3 327 318 341 327 328 320 221 165 326 268 266 269 262 259 254 279 272 226 211 203 198 203 207 200 194 202 210 209 208 210 213 215 224 232 222 214 194 204 221 215 224 205 213 260 237 227 215 208 206 190 194 197 194 208 188 152 165 174 177 176 172 172 175 177 177 178 180 182 184 188 190
353 351 349 353 353 354 354 353 357 352 345 351 343 343 355 2 9 102 314 332 321 317 301 232 201 243 274 276 273 268 277 282 280 264 231 216 208 202 206 209 200 190 189 196 205 203 200 201 206 216 224 214 212 208 210 220 203 211 209 208 244 240 237 230 226 216 187 195 200 194 204 183 159 169 176 177 176 174 176 178 178 179 180 181 182 185 189 192
352 350 348 351 352 352 353 352 357 355 349 353 346 352 7 4 10 9 324 323 304 285 274 267 251 251 266 271 273 280 287 284 279 258 223 208 211 208 209 206 197 189 187 189 193 197 194 191 217 217 217 213 214 216 209 219 236 236 226 223 237 242 246 238 233 226 192 191 202 201 199 176 170 176 176 176 175 176 178 177 179 181 182 182 183 185 189 193
351 349 346 348 349 351 354 352 353 356 355 355 358 11 19 7 4 331 329 321 309 302 279 273 264 253 262 268 271 284 298 293 275 247 218 210 216 209 204 199 192 192 195 187 179 192 194 209 227 217 211 210 208 214 210 217 238 245 239 236 244 240 248 247 239 228 194 195 212 205 194 176 177 177 174 174 175 180 181 178 181 184 184 184 184 186 189 192
350 348 345 345 346 349 353 351 351 357 355 353 4 15 13 1 354 335 332 315 313 319 301 289 277 257 262 267 270 277 283 283 269 244 214 211 222 205 195 195 192 200 191 181 180 184 197 226 227 209 195 207 201 201 209 220 231 240 245 244 248 241 257 264 255 243 204 200 212 201 194 186 182 177 174 177 179 184 185 183 184 185 184 184 186 188 189 190
348 346 344 344 343 345 351 350 347 351 349 352 359 3 359 351 349 344 339 303 303 318 321 319 290 265 270 269 269 269 256 253 260 246 217 212 222 202 195 198 194 203 190 184 192 182 201 229 217 190 189 206 207 198 201 216 228 234 239 234 245 242 242 257 256 254 226 218 205 193 194 187 182 179 176 182 183 185 188 187 185 184 184 186 188 188 188 188
346 345 343 343 341 343 351 350 345 349 348 351 351 350 352 348 349 348 338 301 284 309 330 1 352 316 310 312 306 262 242 244 245 238 220 216 219 201 201 203 193 210 202 191 196 201 222 215 168 180 201 204 210 207 195 204 220 228 233 230 235 239 234 239 253 278 287 260 210 182 186 190 181 182 184 187 185 186 190 189 187 186 187 188 188 188 187 189
343 342 340 342 341 341 351 356 350 353 352 351 346 344 350 350 351 347 336 306 279 292 331 20 25 16 13 7 350 277 239 251 243 238 230 224 215 198 204 206 198 214 207 195 196 211 234 202 161 181 202 204 210 213 200 197 207 222 229 230 230 239 245 245 255 276 300 290 236 175 179 221 189 186 189 187 188 192 190 189 191 189 188 188 188 188 189 190
342 339 337 340 341 340 353 4 356 358 357 353 351 349 351 352 349 344 336 350 309 275 342 7 16 9 3 356 341 300 236 273 257 250 246 234 221 205 202 201 204 216 204 198 201 212 230 208 181 188 194 201 211 216 208 197 198 219 221 227 230 238 251 254 260 254 225 264 252 190 185 200 194 193 192 186 189 194 190 191 196 192 187 186 188 190 189 189
344 338 334 338 341 343 358 4 357 1 358 353 354 354 351 348 344 339 336 104 319 294 348 10 11 350 350 349 342 291 195 315 272 248 244 236 229 222 216 202 197 211 194 193 219 208 201 202 202 202 195 199 209 213 207 196 203 220 203 216 230 236 248 251 254 251 236 271 292 235 195 179 189 197 193 189 190 191 192 196 199 196 191 189 190 191 189 188
347 338 332 337 343 349 3 6 359 359 357 353 355 355 350 342 336 338 45 121 325 335 352 357 353 343 346 349 348 214 266 315 318 247 240 231 228 228 227 211 196 204 195 200 219 192 186 200 201 205 205 203 209 211 200 196 211 218 181 201 224 235 248 250 246 255 256 279 298 277 216 203 231 207 186 186 191 191 195 198 199 197 193 192 193 192 190 190
348 340 332 336 344 351 4 10 1 357 356 355 354 351 345 338 332 22 83 250 341 14 6 350 351 345 346 348 349 347 317 307 323 310 258 228 226 228 233 219 200 207 213 217 225 193 186 201 196 206 219 209 210 213 199 200 213 211 196 205 214 224 245 249 236 242 250 249 254 245 206 221 262 240 176 181 191 194 198 202 200 195 192 192 193 193 192 191
349 341 334 335 345 358 6 10 2 359 358 355 354 349 342 336 356 73 65 280 340 7 6 6 1 347 348 347 338 346 342 312 334 338 306 236 220 222 234 235 218 216 226 226 225 222 220 205 194 205 224 212 200 206 205 208 207 194 200 221 228 222 238 248 227 213 229 240 243 229 199 207 254 261 188 181 190 193 196 201 200 195 193 194 194 193 191 191
351 344 337 335 346 1 2 2 2 2 1 357 353 348 344 350 72 102 75 337 328 351 3 5 359 350 349 347 332 343 344 331 353 357 335 283 221 210 224 233 219 214 239 239 226 224 229 222 202 202 212 208 193 202 207 208 206 196 188 207 236 245 247 254 228 195 212 233 245 219 193 201 238 259 218 197 197 194 192 194 194 196 195 194 195 194 192 192
354 350 344 338 346 0 356 352 358 360 359 356 347 343 350 35 36 145 336 342 332 358 5 346 347 350 339 335 339 342 339 337 354 1 342 320 270 204 204 210 198 205 227 237 231 217 220 229 231 211 209 205 200 206 205 204 205 205 192 189 208 215 222 234 227 217 209 230 244 197 177 205 229 236 225 212 208 200 195 192 191 194 195 194 196 196 194 193
357 355 355 344 342 2 0 348 350 352 353 352 343 342 25 89 23 350 344 351 344 345 349 337 337 338 332 337 347 341 337 352 358 353 342 337 335 244 218 213 192 201 218 214 210 214 222 227 225 226 215 201 203 203 195 203 198 197 199 190 191 195 203 217 229 235 206 230 245 193 171 213 233 239 226 214 217 209 202 196 191 194 197 195 195 195 194 194
358 359 5 3 348 354 0 348 344 346 348 348 346 356 57 87 3 7 357 348 327 335 340 335 329 326 338 344 350 2 4 4 2 356 348 349 353 351 285 236 212 215 225 205 200 206 224 229 214 220 214 183 202 208 186 184 192 200 199 186 197 198 190 199 200 204 205 232 244 206 188 201 197 224 217 207 217 212 209 204 194 197 200 196 193 193 192 193
1 3 8 24 27 2 2 352 346 346 346 349 354 34 63 350 309 346 346 329 328 339 334 326 324 328 356 349 347 20 25 352 358 357 357 358 344 352 351 312 306 336 315 247 237 209 226 240 206 211 215 184 202 208 184 172 189 204 192 185 211 198 160 185 201 181 160 168 230 221 216 203 196 240 234 216 229 215 211 205 189 193 200 195 190 191 192 194
3 9 7 19 44 14 359 343 339 337 338 359 20 42 320 189 232 305 336 356 340 333 325 323 341 343 351 348 340 3 1 345 358 359 357 347 326 357 15 4 14 19 23 350 284 269 233 242 208 199 216 213 210 205 190 186 179 188 196 199 201 169 148 191 245 222 133 165 236 237 240 274 269 268 271 248 250 237 215 204 178 184 193 191 187 190 193 195
1 7 34 40 27 360 344 330 325 319 319 15 73 274 259 201 290 332 354 351 318 309 326 332 3 0 347 345 339 353 352 351 8 2 347 330 327 19 16 2 23 23 12 359 288 303 330 266 232 207 213 217 216 214 208 199 172 162 201 194 143 130 171 174 211 264 166 191 256 247 229 257 243 246 269 247 244 253 228 207 175 178 185 186 188 191 193 194
356 3 60 39 0 347 342 333 325 310 306 49 111 273 249 194 30 22 359 349 316 299 345 325 340 7 349 336 333 355 358 1 6 355 341 328 339 32 22 355 12 12 358 349 317 318 347 302 252 229 217 209 208 212 223 213 197 187 189 170 145 172 199 177 180 207 186 193 260 273 233 223 208 228 256 230 230 240 235 214 176 174 181 184 187 192 194 194
358 2 45 10 349 345 356 349 332 314 304 74 247 264 259 193 22 353 344 3 345 312 337 317 338 6 341 333 340 2 7 358 353 347 347 342 328 12 29 10 347 355 356 350 334 325 330 306 275 255 236 213 196 198 216 216 206 194 165 163 176 186 180 173 178 175 164 186 216 248 246 236 227 217 221 225 223 223 226 221 188 174 179 182 186 193 194 192
360 357 358 358 349 342 353 353 342 323 209 206 219 255 303 284 359 340 355 31 14 333 351 328 338 348 331 344 349 360 7 351 346 341 323 334 325 339 32 24 348 342 348 345 331 329 332 339 296 290 292 268 209 196 207 211 205 190 173 179 188 167 141 173 199 164 150 159 187 197 233 250 242 218 221 227 222 217 218 216 200 177 177 182 187 193 193 190
0 350 339 352 348 342 350 2 4 353 245 246 246 309 334 350 349 347 35 37 10 339 352 337 344 354 346 358 355 352 355 336 337 335 303 330 341 333 13 9 351 341 343 343 347 344 342 351 299 294 323 290 246 224 209 207 208 195 181 188 189 165 141 178 222 221 169 156 170 175 220 254 244 217 222 226 219 219 218 212 201 177 177 182 188 192 191 188
359 334 340 352 349 350 3 28 13 1 344 348 360 6 359 352 344 8 38 26 7 345 344 336 354 5 3 3 349 339 336 323 332 331 290 314 326 313 342 350 348 347 343 328 330 329 315 300 271 268 280 263 262 267 228 207 209 202 191 189 188 174 161 181 207 205 188 200 196 172 215 263 255 215 209 222 222 219 214 211 195 172 178 184 190 192 190 187
346 320 340 355 357 13 38 62 9 10 357 348 354 3 2 351 356 16 17 5 354 327 337 353 11 13 16 357 337 318 316 323 48 313 299 306 312 312 329 340 343 344 341 324 327 329 321 329 306 291 286 267 266 278 269 227 207 204 202 182 183 192 182 177 184 174 182 206 202 194 248 266 271 237 203 219 226 220 211 205 189 170 179 187 189 189 187 187
334 319 336 354 12 43 52 32 359 5 341 347 349 353 358 355 5 10 353 334 332 304 289 11 21 15 352 333 325 314 322 359 150 290 303 293 303 315 323 333 337 336 324 312 321 327 329 353 352 321 300 266 262 272 281 250 211 207 204 189 192 196 181 155 146 158 191 209 187 170 230 254 270 288 288 236 215 210 203 192 178 169 178 187 186 184 184 187
337 325 333 347 13 52 50 27 25 356 337 348 344 342 351 353 359 355 335 324 347 353 337 331 18 14 346 333 329 323 337 110 171 274 284 281 302 314 319 327 329 316 293 297 311 316 308 295 297 305 271 234 227 222 246 279 254 228 204 197 196 186 177 163 135 158 199 213 190 176 219 259 281 309 318 276 180 178 181 176 169 169 176 181 181 182 184 186
338 337 331 341 1 31 23 15 20 7 345 347 340 339 345 342 348 348 342 350 0 354 341 342 20 11 343 336 331 320 325 331 290 293 276 294 310 305 317 324 318 306 300 320 338 335 292 276 259 247 253 261 269 269 278 308 306 266 217 199 192 181 180 173 143 169 186 179 193 207 220 250 280 300 300 271 155 158 171 164 152 161 172 177 179 182 185 186
338 349 356 342 347 359 359 359 3 357 324 315 314 321 327 324 333 347 356 359 343 337 331 37 26 1 324 335 333 314 318 319 316 304 285 301 307 297 314 314 304 315 342 358 351 339 289 296 278 259 268 278 280 279 281 287 280 270 246 206 189 181 181 179 180 188 162 146 203 234 227 234 259 274 267 237 148 137 156 165 157 160 169 175 178 180 184 186
334 324 343 341 335 353 351 336 332 326 309 311 316 296 310 326 354 356 357 337 328 329 330 6 5 344 323 331 326 302 317 318 303 299 293 303 308 311 319 298 285 348 6 356 342 347 307 281 284 298 303 293 284 276 270 263 258 269 253 207 189 186 186 186 197 188 156 157 204 225 224 223 233 249 253 240 202 174 163 172 171 165 168 173 176 179 183 185
316 299 304 316 317 310 302 302 305 305 308 318 322 306 328 358 4 354 348 331 322 328 336 328 334 340 331 325 314 292 323 326 302 299 293 287 308 322 331 300 297 0 1 342 336 360 333 274 299 318 309 294 285 280 272 263 267 296 261 198 184 191 194 185 188 191 175 182 198 200 210 222 229 234 246 247 188 148 143 152 152 157 165 169 173 177 182 185
303 296 293 302 298 282 284 294 301 304 312 312 297 321 358 12 359 340 333 321 304 318 338 326 317 323 320 316 309 277 288 299 288 293 290 279 299 320 348 315 307 331 343 339 332 345 338 297 315 323 310 290 295 321 334 312 288 316 314 199 185 192 199 189 182 189 195 203 195 169 183 229 261 236 87 66 85 86 89 110 126 152 166 168 170 174 180 185
288 293 295 294 286 279 282 289 297 297 295 292 294 340 3 18 345 320 311 307 302 307 320 318 317 318 305 304 301 275 289 301 294 300 300 289 279 224 171 217 279 304 328 330 316 320 320 299 309 327 320 292 311 342 339 318 300 354 13 323 199 190 192 195 180 155 175 215 183 131 152 229 255 110 80 65 75 80 76 80 96 131 156 164 167 171 177 184
292 299 300 290 272 276 281 278 285 284 284 307 326 329 328 346 324 312 307 304 299 303 307 307 313 315 299 296 297 292 309 309 300 299 298 289 277 244 207 220 245 261 285 305 305 296 287 295 313 336 326 288 311 331 322 314 343 46 27 359 314 197 146 158 166 94 33 354 166 165 196 213 191 119 89 71 65 64 56 62 88 110 129 148 161 167 175 183
Height
1526 1524 1523 1521 1519 1518 1516 1515 1513 1511 1509 1507 1505 1504 1503 1501 1500 1498 1497 1496 1495 1494 1493 1491 1490 1490 1489 1489 1487 1486 1486 1485 1485 1485 1479 1474 1480 1486 1487 1489 1491 1492 1494 1496 1496 1497 1498 1500 1501 1504 1506 1508 1509 1509 1510 1511 1511 1513 1516 1521 1522 1518 1514 1507 1504 1504 1505 1506 1505 1504 1503 1506 1508 1508 1507 1510 1514 1509 1510 1513 1513 1515 1515 1516 1519 1523 1526 1529
1526 1524 1522 1520 1519 1517 1515 1514 1512 1510 1508 1506 1504 1503 1501 1500 1498 1497 1495 1494 1493 1492 1492 1490 1489 1488 1487 1487 1486 1485 1484 1483 1482 1479 1474 1474 1478 1481 1483 1486 1489 1490 1491 1493 1494 1495 1496 1497 1499 1502 1505 1506 1507 1507 1508 1508 1508 1509 1512 1518 1517 1509 1503 1497 1497 1497 1499 1503 1503 1502 1502 1504 1506 1505 1506 1509 1510 1508 1510 1514 1515 1516 1518 1520 1522 1524 1528 1529
1525 1524 1522 1520 1518 1516 1515 1513 1511 1509 1507 1505 1503 1501 1499 1498 1497 1495 1494 1492 1491 1490 1490 1489 1487 1486 1485 1485 1484 1483 1482 1482 1478 1473 1472 1473 1474 1477 1480 1482 1485 1488 1488 1490 1492 1494 1496 1497 1499 1501 1503 1505 1505 1506 1506 1506 1505 1505 1508 1515 1508 1498 1495 1493 1493 1494 1495 1498 1500 1502 1501 1502 1502 1502 1503 1505 1505 1506 1509 1510 1512 1514 1517 1520 1522 1524 1527 1529
1525 1523 1521 1519 1518 1516 1514 1512 1510 1508 1506 1504 1502 1500 1498 1496 1495 1494 1492 1490 1489 1488 1487 1487 1486 1484 1484 1483 1483 1482 1482 1481 1474 1469 1470 1471 1470 1473 1477 1478 1482 1485 1487 1490 1492 1494 1496 1498 1500 1501 1503 1503 1503 1504 1504 1503 1502 1501 1504 1507 1497 1491 1494 1491 1491 1493 1493 1495 1498 1500 1502 1502 1499 1500 1500 1500 1505 1507 1506 1506 1506 1509 1513 1517 1521 1523 1526 1528
1525 1523 1521 1519 1517 1515 1513 1511 1509 1507 1505 1503 1501 1499 1497 1495 1493 1492 1491 1489 1487 1486 1485 1485 1484 1483 1482 1481 1482 1481 1483 1481 1471 1467 1469 1469 1469 1471 1474 1476 1479 1482 1486 1489 1491 1493 1495 1497 1499 1500 1502 1501 1502 1503 1500 1498 1499 1499 1497 1494 1489 1490 1493 1488 1488 1491 1491 1492 1494 1496 1499 1500 1497 1498 1498 1497 1502 1502 1501 1504 1504 1505 1509 1513 1517 1522 1525 1528
1524 1522 1520 1518 1516 1514 1512 1510 1508 1506 1504 1502 1500 1497 1495 1494 1491 1490 1489 1487 1486 1484 1484 1483 1482 1482 1481 1481 1480 1480 1482 1478 1468 1468 1469 1468 1468 1469 1472 1474 1477 1481 1484 1486 1488 1491 1493 1495 1498 1499 1499 1499 1500 1498 1495 1495 1498 1499 1494 1489 1487 1488 1489 1486 1486 1489 1489 1490 1491 1493 1495 1495 1495 1496 1495 1495 1496 1496 1497 1501 1504 1506 1508 1511 1515 1519 1523 1526
1524 1522 1520 1518 1516 1513 1511 1509 1507 1505 1503 1501 1498 1496 1494 1492 1490 1488 1487 1486 1484 1482 1482 1481 1481 1480 1479 1480 1479 1479 1480 1472 1466 1468 1468 1467 1467 1468 1471 1473 1475 1479 1481 1484 1485 1488 1490 1492 1494 1495 1497 1498 1497 1494 1493 1494 1494 1497 1494 1487 1485 1486 1485 1485 1486 1487 1488 1489 1488 1490 1493 1492 1495 1495 1494 1495 1495 1496 1499 1501 1504 1508 1511 1514 1516 1518 1521 1524
1524 1522 1519 1517 1515 1513 1511 1508 1506 1504 1501 1499 1497 1495 1492 1490 1488 1486 1485 1484 1482 1481 1480 1479 1479 1478 1478 1478 1478 1479 1476 1468 1464 1467 1467 1467 1467 1468 1470 1471 1474 1476 1478 1481 1482 1485 1487 1489 1491 1492 1495 1494 1492 1491 1491 1493 1493 1493 1490 1484 1483 1483 1482 1483 1485 1486 1485 1486 1488 1490 1492 1492 1493 1494 1493 1494 1495 1497 1500 1503 1506 1509 1513 1515 1517 1519 1521 1524
1524 1521 1519 1517 1514 1512 1510 1507 1505 1503 1500 1498 1495 1493 1491 1489 1487 1485 1483 1482 1481 1480 1478 1478 1478 1477 1477 1477 1478 1478 1470 1463 1463 1464 1465 1466 1467 1468 1469 1470 1472 1474 1476 1479 1481 1483 1484 1486 1488 1489 1491 1490 1490 1489 1489 1494 1493 1486 1483 1481 1481 1480 1479 1481 1483 1483 1483 1484 1486 1489 1492 1492 1492 1493 1493 1494 1495 1497 1500 1503 1506 1509 1512 1515 1518 1520 1521 1523
1524 1521 1518 1516 1514 1511 1509 1506 1504 1501 1499 1497 1494 1492 1489 1487 1486 1483 1482 1480 1479 1478 1477 1477 1476 1475 1476 1476 1478 1476 1465 1462 1463 1463 1464 1466 1466 1468 1469 1470 1471 1472 1474 1477 1479 1481 1481 1483 1485 1488 1490 1489 1489 1488 1487 1490 1487 1480 1480 1480 1480 1479 1478 1479 1480 1479 1481 1483 1484 1488 1491 1491 1491 1494 1496 1495 1494 1496 1500 1504 1506 1509 1511 1514 1517 1519 1521 1523
1523 1520 1518 1515 1513 1510 1508 1505 1503 1500 1498 1495 1493 1490 1488 1486 1484 1482 1480 1479 1478 1477 1476 1475 1474 1474 1474 1475 1476 1470 1462 1462 1462 1462 1464 1465 1466 1467 1468 1470 1470 1471 1473 1475 1477 1478 1480 1482 1485 1489 1490 1488 1486 1486 1484 1483 1481 1479 1481 1481 1478 1477 1477 1477 1477 1478 1479 1482 1482 1485 1489 1489 1490 1494 1495 1494 1495 1496 1498 1503 1506 1508 1511 1513 1516 1518 1520 1522
1522 1520 1517 1514 1512 1509 1507 1504 1502 1499 1496 1494 1492 1489 1487 1486 1484 1481 1479 1478 1476 1475 1474 1473 1473 1472 1473 1473 1469 1462 1459 1461 1461 1462 1463 1463 1465 1466 1467 1469 1469 1470 1471 1473 1475 1477 1480 1482 1484 1487 1486 1484 1485 1486 1482 1478 1479 1479 1480 1484 1480 1476 1478 1476 1475 1477 1478 1480 1480 1483 1493 1494 1492 1493 1491 1492 1495 1495 1498 1502 1505 1508 1511 1513 1515 1517 1519 1521
1521 1519 1516 1513 1511 1508 1506 1503 1500 1498 1495 1493 1490 1488 1487 1484 1483 1480 1477 1476 1474 1473 1472 1471 1471 1470 1472 1468 1458 1456 1459 1459 1459 1460 1461 1460 1462 1464 1467 1468 1468 1470 1471 1472 1474 1476 1479 1481 1483 1484 1482 1482 1483 1483 1479 1474 1477 1478 1477 1482 1483 1483 1481 1473 1472 1475 1476 1479 1476 1483 1502 1503 1493 1489 1488 1491 1494 1496 1499 1501 1504 1507 1509 1512 1514 1516 1518 1520
1520 1517 1515 1512 1509 1507 1505 1502 1500 1497 1494 1492 1490 1488 1486 1484 1481 1478 1476 1474 1473 1473 1471 1469 1468 1468 1468 1460 1451 1454 1456 1455 1456 1457 1459 1460 1460 1462 1464 1467 1468 1469 1470 1471 1474 1476 1478 1480 1483 1483 1482 1482 1481 1480 1477 1474 1476 1477 1478 1480 1484 1490 1484 1470 1468 1472 1476 1478 1472 1482 1502 1502 1491 1487 1487 1490 1492 1494 1498 1500 1502 1505 1507 1510 1512 1515 1517 1518
1519 1516 1514 1512 1509 1506 1504 1502 1499 1496 1494 1491 1489 1487 1485 1483 1480 1477 1476 1473 1472 1472 1470 1468 1467 1466 1465 1455 1449 1452 1451 1451 1452 1454 1457 1458 1459 1461 1461 1464 1467 1468 1469 1471 1473 1476 1477 1480 1482 1482 1480 1480 1480 1482 1481 1479 1477 1477 1485 1487 1483 1487 1483 1470 1465 1468 1474 1476 1471 1481 1499 1498 1491 1486 1486 1489 1490 1491 1495 1497 1500 1502 1504 1508 1510 1512 1515 1516
1518 1515 1513 1511 1508 1505 1503 1500 1498 1495 1493 1491 1488 1486 1484 1482 1479 1476 1475 1473 1472 1471 1469 1468 1465 1466 1464 1453 1447 1449 1449 1449 1450 1453 1456 1456 1457 1459 1460 1463 1465 1467 1468 1469 1471 1474 1477 1479 1480 1480 1479 1479 1480 1482 1485 1486 1483 1479 1485 1490 1485 1483 1483 1475 1467 1463 1465 1471 1472 1478 1490 1493 1488 1483 1483 1487 1488 1489 1492 1495 1498 1500 1502 1504 1507 1510 1512 1515
1517 1514 1512 1510 1507 1505 1502 1499 1497 1494 1492 1490 1488 1485 1483 1481 1477 1475 1474 1473 1471 1469 1469 1467 1465 1465 1459 1449 1446 1447 1448 1449 1449 1452 1454 1455 1457 1457 1460 1462 1463 1465 1467 1468 1471 1472 1474 1477 1478 1478 1477 1476 1476 1480 1490 1494 1490 1484 1483 1486 1483 1480 1481 1478 1472 1463 1461 1468 1473 1474 1479 1484 1480 1477 1480 1484 1485 1488 1490 1493 1496 1498 1500 1502 1504 1507 1510 1512
1517 1514 1511 1509 1506 1504 1501 1499 1497 1494 1492 1490 1487 1484 1482 1480 1476 1474 1473 1472 1470 1467 1467 1465 1466 1465 1452 1444 1446 1446 1446 1447 1446 1448 1451 1453 1456 1456 1458 1460 1461 1463 1465 1468 1469 1469 1472 1472 1474 1477 1475 1474 1473 1476 1486 1488 1485 1485 1485 1485 1483 1479 1477 1477 1471 1462 1461 1467 1471 1474 1477 1477 1474 1473 1477 1480 1483 1485 1487 1490 1493 1494 1497 1499 1501 1504 1506 1508
1516 1513 1510 1508 1505 1503 1500 1498 1496 1494 1491 1489 1487 1484 1481 1477 1474 1474 1474 1473 1469 1466 1465 1463 1464 1461 1449 1442 1444 1445 1446 1447 1445 1445 1447 1450 1454 1456 1457 1459 1460 1461 1464 1466 1466 1465 1468 1470 1473 1476 1472 1469 1468 1469 1475 1475 1475 1479 1480 1481 1482 1480 1475 1471 1465 1457 1457 1466 1471 1472 1474 1474 1474 1473 1473 1476 1480 1483 1486 1488 1491 1493 1495 1497 1498 1500 1503 1505
1516 1513 1510 1507 1505 1502 1500 1498 1495 1494 1491 1488 1485 1481 1478 1474 1473 1473 1472 1471 1466 1463 1462 1458 1458 1455 1447 1442 1442 1444 1446 1445 1445 1443 1443 1447 1451 1453 1455 1458 1458 1459 1460 1461 1464 1462 1464 1472 1472 1467 1464 1463 1463 1465 1468 1470 1471 1473 1475 1477 1477 1478 1474 1465 1460 1454 1452 1465 1471 1466 1468 1471 1472 1470 1468 1472 1477 1480 1484 1486 1487 1490 1491 1492 1494 1496 1498 1500
1516 1513 1509 1506 1504 1502 1500 1497 1495 1493 1491 1489 1485 1482 1483 1482 1482 1478 1471 1463 1454 1454 1455 1449 1450 1450 1443 1441 1441 1445 1448 1444 1442 1441 1441 1444 1446 1449 1451 1452 1455 1457 1455 1456 1461 1460 1464 1470 1462 1455 1458 1460 1461 1463 1466 1469 1470 1471 1474 1476 1476 1475 1472 1460 1456 1453 1450 1463 1468 1462 1467 1471 1469 1467 1466 1468 1474 1476 1478 1480 1482 1484 1485 1487 1489 1491 1493 1496
1515 1512 1509 1506 1503 1501 1499 1496 1494 1493 1492 1490 1487 1487 1489 1489 1490 1487 1480 1467 1447 1443 1448 1442 1443 1444 1439 1439 1441 1447 1452 1446 1441 1438 1439 1442 1442 1444 1445 1447 1452 1453 1452 1455 1459 1463 1467 1461 1449 1451 1457 1458 1460 1461 1465 1468 1469 1472 1473 1476 1477 1473 1469 1461 1453 1451 1450 1460 1465 1462 1467 1470 1464 1462 1463 1463 1467 1469 1470 1472 1475 1477 1481 1483 1485 1487 1490 1494
1514 1511 1508 1505 1502 1500 1498 1496 1494 1493 1491 1490 1488 1488 1489 1488 1489 1487 1485 1477 1454 1439 1441 1441 1440 1439 1437 1439 1441 1445 1448 1446 1442 1436 1437 1441 1439 1440 1441 1443 1448 1451 1451 1453 1456 1463 1463 1450 1443 1451 1455 1457 1461 1460 1463 1468 1469 1471 1471 1475 1476 1469 1471 1469 1456 1452 1451 1453 1458 1459 1464 1466 1463 1462 1462 1459 1459 1463 1466 1467 1469 1472 1474 1476 1477 1481 1485 1489
1513 1510 1507 1503 1501 1498 1497 1495 1493 1492 1491 1490 1489 1488 1488 1487 1486 1485 1481 1477 1463 1444 1440 1440 1440 1440 1439 1440 1441 1444 1443 1442 1440 1434 1433 1437 1437 1438 1439 1439 1445 1448 1447 1448 1450 1455 1452 1441 1441 1450 1453 1455 1460 1460 1462 1468 1470 1469 1467 1470 1471 1465 1465 1464 1456 1454 1454 1452 1450 1455 1469 1471 1467 1469 1467 1460 1459 1460 1463 1466 1469 1469 1468 1470 1474 1476 1479 1482
1512 1509 1506 1503 1500 1497 1496 1495 1492 1492 1490 1489 1489 1487 1487 1485 1484 1484 1480 1477 1467 1448 1440 1441 1441 1442 1442 1441 1441 1441 1441 1437 1433 1431 1431 1434 1435 1436 1436 1437 1441 1445 1445 1445 1449 1450 1446 1440 1441 1447 1451 1453 1457 1459 1459 1463 1468 1468 1462 1460 1461 1460 1459 1457 1457 1459 1466 1467 1452 1454 1480 1482 1468 1468 1467 1462 1462 1462 1461 1463 1465 1466 1467 1469 1472 1474 1475 1477
1511 1508 1505 1502 1500 1496 1496 1494 1492 1491 1489 1488 1487 1484 1484 1484 1483 1482 1480 1483 1472 1448 1441 1443 1443 1443 1443 1443 1441 1441 1442 1435 1428 1428 1429 1431 1433 1434 1436 1436 1435 1439 1441 1442 1446 1445 1440 1440 1441 1445 1449 1451 1455 1456 1453 1455 1466 1467 1456 1451 1454 1456 1457 1456 1459 1464 1472 1472 1452 1447 1472 1481 1471 1467 1463 1459 1461 1461 1460 1461 1460 1461 1463 1465 1468 1469 1471 1474
1511 1507 1504 1502 1500 1497 1495 1495 1493 1492 1489 1487 1486 1483 1483 1481 1482 1480 1479 1485 1472 1446 1443 1447 1446 1448 1446 1443 1441 1442 1443 1433 1425 1424 1423 1427 1431 1431 1434 1433 1433 1435 1435 1441 1447 1439 1434 1439 1442 1443 1446 1449 1452 1452 1447 1448 1460 1460 1448 1448 1453 1454 1455 1455 1458 1465 1465 1462 1454 1446 1455 1469 1471 1464 1455 1454 1459 1461 1460 1460 1458 1457 1458 1460 1463 1465 1467 1469
1510 1507 1504 1502 1501 1498 1497 1496 1494 1492 1490 1487 1484 1483 1481 1479 1480 1477 1481 1487 1468 1445 1448 1451 1448 1450 1447 1443 1441 1441 1439 1433 1429 1425 1421 1426 1428 1428 1430 1428 1431 1433 1429 1437 1443 1432 1428 1436 1439 1440 1445 1446 1444 1441 1440 1443 1451 1450 1443 1446 1450 1451 1451 1450 1457 1464 1460 1464 1468 1456 1451 1467 1470 1455 1449 1453 1458 1462 1460 1456 1454 1453 1454 1457 1460 1462 1463 1464
1509 1506 1503 1502 1501 1500 1498 1497 1494 1492 1490 1487 1484 1482 1479 1478 1477 1476 1483 1484 1463 1450 1455 1453 1450 1452 1449 1443 1441 1441 1439 1435 1434 1429 1423 1424 1424 1425 1427 1425 1427 1431 1428 1429 1433 1430 1426 1428 1432 1436 1440 1439 1436 1435 1436 1440 1445 1442 1441 1445 1446 1448 1448 1448 1457 1462 1461 1472 1475 1460 1454 1468 1469 1453 1451 1457 1458 1459 1455 1448 1446 1446 1450 1453 1455 1458 1460 1461
1508 1505 1503 1501 1501 1500 1499 1497 1495 1492 1489 1486 1485 1481 1477 1476 1477 1481 1488 1480 1464 1460 1460 1457 1458 1458 1455 1450 1443 1442 1441 1438 1435 1430 1424 1420 1420 1423 1424 1424 1425 1428 1427 1425 1427 1427 1422 1422 1425 1428 1429 1430 1431 1432 1432 1435 1437 1437 1442 1447 1449 1451 1448 1449 1454 1457 1468 1477 1469 1456 1452 1461 1468 1455 1447 1451 1447 1444 1445 1444 1444 1444 1446 1449 1450 1453 1455 1457
1507 1505 1503 1501 1501 1500 1498 1497 1495 1492 1489 1487 1483 1479 1477 1475 1478 1488 1489 1474 1467 1468 1463 1463 1465 1462 1460 1459 1454 1448 1443 1440 1438 1436 1431 1422 1420 1421 1424 1426 1426 1428 1432 1429 1427 1425 1423 1424 1422 1418 1420 1422 1427 1431 1429 1429 1431 1436 1442 1449 1456 1459 1455 1457 1457 1459 1477 1480 1460 1450 1447 1454 1466 1454 1438 1436 1431 1428 1432 1437 1440 1441 1442 1444 1446 1448 1449 1451
1507 1504 1502 1501 1501 1499 1498 1496 1494 1492 1490 1487 1483 1480 1479 1480 1485 1492 1486 1474 1475 1476 1471 1469 1468 1465 1463 1461 1460 1455 1449 1446 1443 1442 1440 1431 1424 1419 1422 1425 1425 1432 1439 1434 1430 1428 1424 1421 1418 1416 1415 1416 1424 1431 1432 1430 1430 1436 1442 1449 1464 1471 1469 1473 1470 1466 1476 1471 1450 1444 1447 1452 1456 1442 1429 1428 1425 1422 1423 1424 1429 1432 1435 1438 1440 1443 1445 1447
1506 1504 1502 1501 1500 1499 1498 1496 1494 1493 1490 1487 1485 1481 1482 1489 1493 1493 1487 1483 1483 1480 1476 1474 1470 1468 1465 1461 1461 1457 1453 1451 1447 1445 1442 1436 1430 1421 1417 1418 1418 1428 1434 1431 1433 1433 1428 1421 1415 1417 1414 1409 1417 1428 1434 1434 1432 1436 1441 1448 1462 1473 1479 1483 1476 1468 1469 1460 1443 1439 1445 1451 1447 1432 1421 1420 1417 1416 1417 1418 1421 1423 1425 1430 1433 1437 1441 1444
1505 1503 1502 1501 1500 1499 1498 1496 1494 1493 1490 1488 1487 1484 1488 1496 1495 1489 1488 1487 1484 1479 1477 1476 1472 1469 1466 1464 1463 1459 1457 1455 1450 1450 1447 1442 1441 1436 1428 1420 1416 1420 1423 1426 1429 1430 1435 1431 1415 1412 1412 1408 1411 1417 1423 1427 1430 1431 1430 1437 1449 1454 1463 1472 1468 1465 1464 1455 1444 1441 1445 1447 1441 1427 1414 1410 1409 1408 1411 1414 1417 1418 1419 1423 1428 1433 1437 1440
1504 1502 1501 1500 1500 1499 1498 1497 1495 1494 1492 1490 1490 1490 1495 1499 1494 1490 1489 1485 1482 1481 1479 1477 1473 1471 1469 1467 1465 1464 1466 1464 1456 1455 1455 1452 1452 1451 1446 1436 1427 1427 1429 1432 1427 1420 1429 1426 1408 1404 1406 1405 1408 1408 1408 1419 1428 1426 1422 1432 1439 1434 1439 1450 1452 1449 1448 1450 1446 1440 1439 1433 1424 1415 1406 1405 1406 1404 1406 1408 1411 1416 1417 1421 1426 1430 1434 1436
1504 1502 1501 1500 1501 1500 1499 1498 1496 1495 1493 1492 1495 1497 1495 1494 1491 1489 1486 1484 1483 1482 1481 1479 1476 1475 1475 1471 1468 1467 1468 1467 1463 1461 1461 1460 1456 1453 1453 1450 1446 1446 1448 1451 1441 1426 1428 1421 1403 1403 1404 1399 1403 1403 1401 1411 1421 1423 1424 1428 1423 1418 1425 1440 1446 1438 1438 1452 1449 1435 1432 1426 1421 1417 1406 1404 1407 1405 1404 1405 1406 1411 1415 1419 1424 1426 1430 1433
1503 1501 1501 1500 1501 1500 1498 1496 1495 1494 1493 1493 1499 1498 1491 1487 1487 1485 1484 1483 1483 1482 1483 1484 1481 1479 1480 1477 1473 1471 1468 1468 1468 1469 1467 1464 1459 1454 1454 1453 1452 1452 1453 1459 1451 1434 1433 1426 1405 1400 1403 1396 1394 1398 1398 1398 1405 1416 1422 1416 1413 1418 1422 1431 1445 1446 1447 1458 1449 1434 1433 1431 1431 1427 1411 1404 1408 1406 1404 1403 1403 1406 1410 1416 1419 1422 1425 1427
1504 1502 1501 1501 1500 1498 1496 1494 1493 1493 1492 1494 1498 1495 1488 1486 1484 1483 1483 1483 1483 1482 1484 1487 1483 1480 1482 1482 1477 1473 1474 1475 1475 1474 1472 1467 1462 1457 1457 1456 1453 1452 1452 1454 1450 1438 1436 1434 1410 1394 1397 1392 1388 1398 1404 1396 1393 1401 1405 1402 1410 1427 1430 1430 1441 1449 1454 1461 1451 1439 1435 1430 1429 1425 1413 1408 1407 1403 1401 1401 1403 1405 1406 1410 1415 1417 1420 1423
1505 1501 1501 1500 1498 1495 1493 1492 1491 1490 1491 1494 1496 1492 1486 1484 1483 1482 1482 1482 1483 1483 1484 1485 1483 1480 1481 1482 1479 1476 1479 1482 1481 1479 1475 1471 1466 1460 1459 1460 1455 1453 1453 1450 1449 1441 1437 1439 1421 1395 1390 1391 1388 1397 1406 1400 1392 1392 1398 1399 1402 1414 1423 1425 1429 1434 1445 1455 1453 1446 1441 1431 1420 1412 1407 1404 1400 1397 1398 1398 1400 1402 1402 1405 1410 1413 1416 1420
1506 1503 1501 1500 1496 1493 1491 1490 1488 1489 1491 1492 1492 1489 1485 1483 1483 1482 1482 1482 1483 1484 1485 1484 1482 1483 1482 1480 1480 1479 1482 1484 1484 1483 1479 1473 1470 1464 1460 1463 1460 1455 1453 1451 1451 1445 1438 1441 1432 1406 1394 1397 1394 1391 1393 1394 1394 1396 1401 1404 1403 1406 1412 1418 1421 1421 1429 1444 1449 1449 1447 1430 1407 1396 1395 1395 1391 1390 1391 1391 1394 1396 1396 1400 1403 1406 1410 1415
1507 1505 1502 1499 1495 1492 1490 1490 1490 1490 1490 1489 1488 1487 1485 1484 1483 1483 1482 1482 1483 1483 1484 1483 1483 1483 1483 1483 1483 1481 1482 1485 1485 1486 1483 1475 1475 1471 1462 1464 1466 1460 1455 1451 1451 1450 1447 1448 1445 1427 1414 1408 1395 1382 1379 1382 1388 1392 1398 1400 1401 1404 1411 1423 1430 1421 1417 1428 1434 1439 1443 1422 1393 1383 1384 1384 1383 1383 1382 1383 1387 1390 1393 1396 1397 1399 1404 1410
1510 1508 1503 1499 1495 1492 1490 1492 1494 1493 1492 1491 1490 1488 1486 1485 1484 1484 1483 1483 1484 1483 1483 1483 1483 1483 1484 1485 1484 1482 1482 1484 1485 1487 1484 1478 1478 1477 1468 1467 1470 1466 1462 1457 1454 1454 1451 1450 1449 1438 1422 1407 1390 1378 1375 1377 1380 1385 1390 1392 1394 1399 1404 1418 1430 1422 1416 1421 1419 1424 1432 1412 1382 1376 1377 1375 1375 1374 1374 1377 1381 1386 1389 1391 1393 1396 1401 1406
1512 1509 1503 1499 1497 1493 1491 1495 1497 1497 1496 1495 1492 1489 1487 1486 1485 1485 1484 1484 1484 1484 1483 1483 1483 1484 1485 1484 1484 1483 1480 1482 1485 1485 1484 1481 1478 1476 1473 1471 1471 1468 1466 1462 1457 1454 1450 1448 1450 1442 1419 1398 1385 1379 1375 1374 1377 1384 1387 1386 1389 1393 1394 1400 1409 1412 1415 1420 1417 1425 1433 1409 1377 1371 1373 1370 1367 1366 1368 1371 1376 1382 1385 1387 1390 1394 1399 1404
1512 1508 1502 1500 1499 1495 1495 1501 1503 1501 1499 1496 1493 1490 1488 1486 1486 1487 1486 1485 1484 1483 1483 1484 1484 1485 1485 1484 1484 1482 1480 1484 1486 1484 1483 1482 1478 1476 1474 1473 1472 1470 1468 1465 1460 1457 1455 1455 1459 1454 1431 1404 1394 1392 1386 1380 1379 1382 1383 1382 1382 1385 1389 1393 1399 1405 1413 1415 1413 1425 1431 1406 1376 1368 1367 1365 1363 1363 1365 1368 1371 1376 1381 1385 1389 1393 1397 1402
1512 1509 1504 1501 1500 1498 1500 1505 1506 1505 1502 1499 1496 1493 1489 1488 1488 1488 1488 1486 1485 1484 1484 1484 1484 1484 1484 1484 1485 1482 1480 1483 1486 1483 1482 1480 1477 1475 1475 1474 1473 1470 1466 1464 1460 1458 1459 1457 1460 1461 1446 1424 1414 1408 1399 1394 1388 1380 1376 1377 1379 1381 1387 1393 1400 1408 1414 1411 1409 1416 1417 1399 1378 1371 1367 1363 1361 1362 1364 1366 1369 1372 1376 1381 1387 1391 1394 1398
1513 1512 1508 1503 1500 1500 1503 1506 1506 1506 1505 1504 1501 1496 1492 1491 1489 1488 1488 1487 1486 1485 1485 1484 1484 1484 1484 1485 1486 1484 1480 1480 1481 1481 1480 1479 1477 1475 1474 1473 1472 1468 1464 1462 1458 1456 1457 1455 1454 1457 1450 1435 1425 1413 1400 1400 1402 1390 1376 1373 1377 1380 1383 1388 1398 1407 1407 1407 1409 1407 1401 1396 1386 1377 1373 1368 1363 1363 1364 1366 1369 1372 1375 1378 1383 1388 1392 1396
1515 1515 1513 1510 1505 1503 1504 1504 1505 1506 1506 1505 1503 1498 1495 1494 1491 1490 1489 1489 1488 1486 1485 1484 1484 1485 1486 1486 1486 1485 1482 1479 1479 1478 1478 1477 1476 1474 1473 1471 1469 1466 1462 1461 1459 1456 1458 1457 1451 1448 1443 1434 1425 1413 1402 1401 1402 1392 1380 1373 1373 1377 1381 1386 1394 1397 1397 1405 1412 1402 1392 1396 1391 1379 1375 1371 1366 1365 1365 1365 1367 1370 1373 1376 1380 1385 1390 1394
1517 1516 1515 1515 1513 1511 1510 1507 1506 1507 1505 1504 1502 1499 1497 1495 1494 1494 1492 1490 1488 1487 1486 1485 1485 1485 1485 1485 1486 1485 1483 1480 1479 1477 1476 1476 1474 1472 1472 1468 1464 1463 1461 1461 1459 1456 1459 1458 1448 1442 1439 1429 1419 1409 1400 1396 1391 1382 1375 1370 1368 1373 1379 1384 1388 1389 1389 1397 1402 1394 1389 1393 1387 1377 1373 1370 1365 1364 1363 1362 1364 1367 1370 1375 1378 1383 1388 1392
1517 1516 1514 1514 1515 1515 1514 1511 1509 1507 1505 1503 1501 1499 1499 1498 1498 1497 1496 1493 1490 1487 1487 1487 1486 1485 1484 1484 1484 1484 1484 1483 1481 1477 1475 1474 1473 1472 1472 1468 1463 1462 1462 1461 1458 1456 1458 1455 1445 1442 1438 1424 1411 1401 1392 1388 1382 1375 1368 1363 1363 1370 1374 1378 1383 1384 1384 1385 1385 1385 1387 1387 1380 1373 1370 1367 1364 1363 1362 1362 1364 1366 1369 1373 1376 1380 1385 1390
1517 1516 1514 1514 1514 1513 1513 1511 1509 1508 1505 1504 1502 1500 1500 1501 1502 1499 1496 1495 1493 1489 1487 1487 1486 1484 1483 1482 1482 1482 1482 1481 1479 1475 1472 1471 1471 1472 1474 1473 1467 1462 1462 1462 1459 1457 1459 1454 1445 1444 1439 1421 1405 1397 1390 1386 1381 1374 1367 1361 1360 1364 1370 1375 1380 1381 1384 1383 1381 1384 1389 1386 1377 1371 1368 1366 1364 1364 1365 1365 1365 1366 1367 1371 1375 1379 1383 1388
1516 1515 1514 1513 1512 1511 1511 1510 1509 1509 1506 1503 1502 1501 1501 1502 1503 1501 1496 1494 1493 1490 1487 1486 1485 1482 1481 1481 1480 1479 1478 1476 1474 1472 1469 1468 1468 1468 1470 1471 1469 1467 1465 1464 1462 1458 1458 1455 1447 1446 1445 1426 1405 1400 1398 1388 1377 1370 1369 1368 1364 1364 1369 1373 1374 1377 1383 1384 1382 1387 1391 1388 1379 1371 1368 1368 1366 1367 1369 1367 1366 1367 1368 1370 1374 1377 1381 1386
1515 1514 1513 1513 1511 1510 1510 1509 1509 1509 1507 1503 1501 1501 1502 1501 1501 1502 1499 1493 1490 1489 1487 1484 1483 1481 1481 1480 1478 1476 1475 1472 1470 1468 1466 1464 1463 1462 1464 1465 1467 1468 1467 1466 1465 1459 1457 1456 1451 1450 1451 1431 1408 1405 1403 1390 1382 1382 1384 1383 1375 1365 1364 1369 1374 1381 1386 1386 1387 1388 1385 1382 1376 1370 1370 1374 1372 1372 1372 1371 1369 1369 1370 1372 1374 1376 1380 1383